Wind_Speed
44 43 42 40 39 36 34 32 31 30 30 28 25 24 24 23 23 22 22 23 24 26 27 28 29 30 30 31 31 32 32 33 35 35 35 35 33 31
49 47 45 44 42 40 37 35 32 31 31 30 28 26 25 24 23 23 22 22 23 25 25 27 28 29 29 28 29 29 29 30 32 33 33 33 32 32
54 52 49 48 46 43 40 37 34 32 31 31 29 27 25 24 24 23 22 22 23 24 25 27 27 28 26 25 24 25 27 27 27 28 28 29 30 31
60 57 54 52 50 46 43 39 36 33 32 31 30 28 26 24 23 23 22 21 22 23 25 26 26 27 25 25 24 23 25 25 24 24 26 28 28 29
66 63 59 57 54 50 46 42 39 35 33 31 30 28 26 24 23 22 21 21 21 23 24 25 26 27 26 24 24 23 22 22 23 24 25 26 27 27
71 68 65 61 58 55 51 47 42 38 34 32 30 29 26 24 23 22 21 20 21 23 24 25 25 25 24 23 23 22 22 22 22 23 25 26 26 26
74 71 69 65 61 59 56 51 47 42 37 34 32 29 26 24 23 21 21 20 21 23 24 25 25 25 24 23 23 23 23 23 23 24 25 25 25 25
75 74 72 67 64 60 57 55 51 46 40 37 33 30 28 25 23 21 20 20 21 22 24 26 26 26 25 25 24 24 23 23 24 24 25 25 24 23
70 73 73 70 66 61 58 56 53 49 44 39 35 32 29 26 24 21 20 19 20 23 25 26 26 26 25 25 25 25 25 24 24 24 24 23 22 22
56 62 67 68 66 63 59 57 53 50 46 42 37 34 31 28 25 22 20 19 20 21 23 24 25 25 25 25 25 25 24 24 24 23 22 22 22 21
43 50 57 62 64 63 59 56 53 50 47 44 40 36 32 29 26 22 20 19 20 21 22 23 24 25 25 26 26 26 25 24 23 23 22 21 20 20
36 41 47 53 58 60 59 56 53 50 47 44 41 37 33 29 26 23 21 20 20 20 21 22 23 24 24 25 25 25 24 24 23 22 21 20 19 19
33 35 40 45 51 56 57 57 54 51 49 45 42 38 35 30 27 24 22 21 21 21 21 22 22 22 22 23 23 23 22 22 22 21 20 19 18 17
32 32 35 40 45 51 55 55 54 52 48 46 42 39 35 31 28 26 24 23 22 21 21 22 21 21 21 21 20 20 19 19 19 18 18 17 16 15
30 30 31 35 42 48 52 54 53 50 48 45 42 39 36 33 30 28 25 23 23 22 21 21 21 19 19 18 18 18 17 17 17 17 17 17 16 15
29 28 29 33 39 46 51 53 52 49 47 44 42 40 36 33 30 28 26 24 23 23 22 21 20 19 18 17 17 17 18 17 17 18 17 17 17 16
28 27 28 31 39 46 50 50 50 49 46 45 42 39 36 33 30 28 26 25 24 23 22 21 20 19 17 17 17 18 18 18 18 18 18 18 17 17
25 25 27 32 41 48 50 49 48 47 45 44 42 39 36 33 31 28 26 25 24 24 22 21 20 19 19 18 19 19 20 20 20 19 19 19 19 19
22 23 27 36 43 49 50 49 47 45 44 43 41 39 36 33 31 29 27 26 25 23 22 21 21 21 21 21 21 21 21 21 21 21 21 21 21 22
20 22 30 39 44 50 52 49 46 44 43 41 39 38 36 34 32 30 28 26 25 24 23 23 23 22 22 22 22 22 23 23 22 22 22 23 24 25
18 21 29 37 44 47 48 47 45 43 41 40 39 38 36 35 33 31 29 27 26 25 24 24 24 23 23 23 24 24 24 24 24 24 24 25 26 28
17 19 27 35 41 43 45 47 45 43 41 40 39 37 36 34 32 31 29 28 27 26 26 25 24 25 25 25 25 25 25 25 25 26 27 28 29 31
17 19 25 31 36 41 44 44 43 41 39 39 37 35 34 32 31 30 28 28 27 26 26 26 26 26 26 26 26 26 26 26 27 28 29 31 32 33
Wind_Direction
238 238 238 239 239 239 240 244 250 255 260 262 266 268 272 277 281 281 276 266 259 253 250 248 247 246 244 243 240 239 238 233 232 233 236 240 242 246
238 238 239 239 239 239 239 242 246 251 258 262 264 266 270 275 280 281 277 268 259 253 250 248 245 243 243 241 238 235 231 227 229 230 234 238 241 245
238 238 238 238 239 238 239 240 243 247 254 258 261 264 267 272 278 279 275 267 259 253 249 246 245 243 241 238 235 232 230 229 229 231 235 238 242 245
236 237 238 238 238 238 238 239 240 243 248 254 258 261 264 269 275 277 273 266 258 251 246 243 242 239 237 235 234 232 230 229 231 235 239 242 245 249
235 236 237 238 237 237 237 237 238 240 243 249 254 257 261 266 272 274 270 263 254 248 242 239 239 237 235 233 231 230 231 233 236 239 243 245 247 249
234 235 236 236 237 237 236 236 236 237 239 244 250 253 257 261 267 270 266 260 251 245 240 237 236 233 231 232 234 235 237 238 240 243 244 246 248 249
234 233 234 234 235 235 235 235 236 236 237 241 246 250 252 256 261 265 263 257 249 243 239 236 235 233 233 235 237 238 239 241 243 245 246 246 248 249
236 234 233 231 232 233 233 232 233 234 235 238 242 245 248 251 256 260 259 254 247 242 238 236 235 234 234 234 235 238 240 242 244 246 246 247 248 248
238 236 234 232 232 231 230 231 231 232 233 235 238 241 243 247 250 254 253 250 244 238 233 233 233 233 233 234 236 239 240 242 244 244 244 244 246 247
237 236 235 234 233 231 228 228 229 229 230 231 233 236 239 242 245 247 246 245 240 236 233 231 232 232 233 235 235 237 240 242 243 242 242 244 245 246
235 235 234 233 232 230 228 227 226 226 226 227 229 232 234 236 239 241 241 242 240 236 232 230 231 233 234 234 235 237 239 240 241 241 242 242 241 241
233 233 233 232 231 229 226 225 224 223 223 223 225 227 228 231 233 233 233 234 234 233 231 231 232 233 233 234 235 236 238 238 238 238 238 237 236 237
232 233 232 230 228 226 223 222 221 220 220 220 221 222 223 225 226 226 226 228 229 230 230 230 232 233 233 234 235 234 235 236 235 232 230 230 231 233
230 231 231 227 224 222 219 217 217 218 217 217 217 219 219 220 221 221 223 224 226 229 229 230 230 230 229 231 231 231 231 231 228 225 225 224 224 225
227 229 229 225 218 215 212 212 212 213 214 214 214 215 215 216 217 218 219 220 224 228 228 227 227 226 225 226 225 224 221 220 220 218 217 217 218 221
225 227 227 221 212 207 205 205 207 209 210 210 210 211 212 212 213 214 217 219 221 224 224 223 223 222 221 221 220 218 216 214 211 210 214 218 222 227
222 226 226 219 205 198 195 197 201 204 206 207 207 208 208 208 209 211 213 215 218 220 221 221 220 220 220 220 216 213 210 208 209 213 218 223 230 239
219 224 221 209 196 188 188 190 193 198 202 204 205 206 205 206 206 207 209 212 215 216 217 218 218 217 216 213 210 210 210 211 214 219 226 234 243 252
216 218 208 194 186 183 184 186 189 195 198 201 202 203 203 204 204 206 209 211 212 214 215 216 215 215 213 212 212 212 216 218 221 227 235 245 254 264
212 210 200 189 183 180 180 183 186 190 195 199 199 199 200 202 203 205 207 210 212 214 215 215 215 215 215 215 217 220 223 227 231 237 245 254 263 272
203 200 194 187 181 179 180 182 185 188 194 197 197 197 199 200 201 203 206 209 212 214 216 218 220 220 221 222 224 226 229 234 240 247 255 263 270 275
194 192 190 184 182 179 179 181 183 186 191 193 194 196 197 199 200 202 206 209 213 216 219 222 225 226 227 227 230 233 236 241 248 254 262 268 273 277
188 188 186 183 182 180 178 180 182 183 188 192 193 195 196 199 201 204 207 211 215 219 222 225 227 230 231 233 236 239 243 248 254 260 266 271 275 279
Height
5751 5755 5759 5762 5766 5770 5773 5776 5779 5780 5781 5783 5785 5784 5783 5782 5781 5781 5780 5781 5782 5784 5786 5788 5791 5793 5795 5797 5799 5802 5805 5808 5813 5817 5822 5825 5829 5831
5739 5743 5747 5751 5755 5759 5763 5767 5770 5773 5774 5775 5777 5778 5777 5776 5775 5774 5774 5774 5775 5777 5779 5781 5784 5786 5788 5790 5792 5795 5798 5801 5806 5810 5814 5818 5821 5824
5725 5729 5734 5738 5743 5748 5753 5757 5761 5764 5766 5767 5769 5770 5770 5770 5769 5768 5767 5767 5768 5770 5772 5775 5777 5780 5782 5784 5787 5789 5793 5796 5799 5803 5807 5811 5814 5816
5709 5714 5720 5725 5730 5736 5741 5746 5751 5755 5758 5759 5761 5763 5763 5763 5762 5762 5761 5761 5762 5764 5766 5768 5771 5774 5776 5779 5782 5784 5787 5791 5794 5798 5801 5804 5807 5809
5691 5698 5704 5710 5717 5723 5729 5734 5740 5745 5749 5751 5753 5755 5756 5756 5756 5755 5755 5755 5756 5758 5760 5763 5765 5768 5771 5774 5777 5780 5783 5786 5789 5792 5794 5797 5800 5802
5672 5680 5688 5695 5702 5709 5716 5722 5728 5734 5739 5742 5745 5747 5749 5749 5749 5749 5749 5749 5750 5752 5755 5757 5760 5763 5766 5769 5772 5775 5778 5781 5783 5786 5788 5791 5793 5795
5651 5660 5669 5678 5686 5694 5702 5709 5716 5723 5729 5733 5736 5739 5742 5743 5743 5743 5743 5743 5744 5746 5749 5753 5755 5758 5761 5764 5767 5770 5773 5775 5777 5779 5782 5784 5786 5788
5631 5641 5650 5660 5669 5677 5686 5695 5703 5711 5718 5723 5728 5731 5734 5736 5736 5737 5737 5737 5739 5742 5744 5747 5750 5753 5756 5759 5762 5765 5767 5769 5771 5773 5776 5778 5780 5782
5611 5621 5631 5641 5651 5661 5670 5679 5689 5698 5706 5713 5719 5723 5726 5728 5730 5730 5731 5732 5734 5736 5739 5741 5745 5748 5751 5754 5756 5759 5761 5764 5766 5768 5770 5772 5774 5776
5594 5603 5614 5624 5634 5645 5655 5666 5676 5686 5695 5703 5709 5714 5718 5721 5723 5724 5725 5727 5728 5731 5734 5737 5739 5742 5746 5748 5751 5753 5756 5758 5760 5762 5765 5767 5769 5771
5580 5588 5597 5608 5620 5631 5643 5654 5664 5673 5683 5691 5699 5704 5709 5713 5716 5718 5720 5721 5723 5726 5729 5731 5734 5737 5740 5742 5745 5748 5750 5752 5754 5757 5759 5761 5763 5765
5569 5576 5584 5594 5604 5616 5629 5641 5652 5662 5672 5680 5688 5695 5701 5705 5709 5712 5714 5716 5718 5721 5723 5726 5729 5732 5734 5736 5739 5741 5744 5746 5749 5751 5754 5756 5759 5761
5559 5564 5571 5579 5590 5603 5616 5629 5641 5651 5661 5670 5679 5686 5692 5697 5702 5705 5708 5711 5714 5717 5719 5721 5724 5726 5729 5731 5733 5735 5738 5741 5743 5746 5749 5752 5754 5756
5549 5555 5560 5568 5578 5590 5604 5617 5629 5640 5651 5661 5670 5678 5685 5690 5695 5698 5701 5705 5709 5711 5713 5716 5718 5721 5724 5726 5728 5730 5733 5736 5738 5742 5744 5747 5750 5752
5541 5546 5552 5558 5567 5579 5592 5605 5618 5630 5642 5652 5662 5670 5677 5682 5687 5691 5695 5699 5703 5706 5708 5711 5714 5716 5718 5721 5723 5726 5728 5731 5734 5737 5741 5743 5746 5748
5534 5539 5544 5550 5558 5569 5581 5595 5609 5621 5633 5644 5653 5661 5668 5675 5680 5685 5690 5694 5697 5700 5703 5706 5709 5712 5714 5717 5719 5722 5724 5728 5731 5734 5737 5739 5742 5744
5527 5532 5537 5542 5550 5561 5574 5587 5601 5613 5625 5636 5645 5654 5661 5668 5673 5679 5684 5688 5692 5696 5699 5702 5705 5708 5710 5713 5716 5718 5721 5724 5727 5730 5733 5735 5737 5739
5522 5526 5530 5535 5544 5555 5568 5581 5594 5607 5619 5629 5639 5647 5655 5661 5667 5673 5677 5682 5687 5691 5694 5697 5700 5703 5706 5709 5712 5715 5718 5721 5723 5726 5729 5731 5732 5733
5517 5521 5525 5531 5539 5551 5563 5576 5589 5601 5612 5623 5633 5641 5649 5655 5661 5667 5672 5677 5681 5685 5689 5693 5696 5699 5702 5705 5708 5711 5714 5716 5719 5721 5723 5725 5726 5727
5514 5517 5522 5528 5537 5548 5560 5572 5584 5596 5607 5617 5627 5635 5643 5650 5656 5661 5666 5671 5676 5680 5684 5688 5691 5695 5698 5701 5704 5706 5709 5712 5714 5716 5717 5718 5719 5720
5512 5516 5521 5527 5536 5546 5558 5570 5581 5593 5603 5614 5622 5631 5638 5645 5651 5656 5661 5666 5671 5675 5679 5683 5686 5690 5694 5697 5699 5701 5704 5706 5708 5710 5711 5711 5711 5711
5512 5516 5522 5529 5537 5546 5557 5568 5579 5590 5601 5610 5619 5626 5633 5640 5646 5651 5657 5661 5666 5670 5674 5678 5682 5685 5688 5691 5693 5696 5698 5700 5701 5703 5703 5704 5704 5703
5513 5518 5524 5530 5538 5547 5558 5569 5579 5589 5598 5608 5616 5623 5629 5636 5642 5647 5652 5656 5661 5665 5669 5673 5676 5680 5683 5685 5688 5690 5692 5693 5695 5695 5696 5696 5695 5694